Regional Weather Roundup
Issued by NWS Binghamton, NY

Home | Current Version | Previous Version | Text Only | Print | Product List | Glossary On
Versions: 1 2 3 4 5 6 7 8 9 10 11 12 13 14 15 16 17 18 19 20 21 22 23 24 25 26 27 28 29 30 31 32 33 34 35 36 37 38 39 40 41 42 43 44 45 46 47 48 49 50
000
ASUS41 KBGM 260310
RWRBGM
RWRBGM
BINGHAMTON REGIONAL WEATHER ROUNDUP
NATIONAL WEATHER SERVICE BINGHAMTON NY
1100 PM EDT MON MAY 25 2015

Note: "fair" indicates few or no clouds below 12,000 feet with no
significant weather and/or obstructions to visibility.

* = Station(s) that does not report precipitation, such as rain,
snow, etc, also no thunder or fog.

!NYZ009-015>018-022>025-036-037-044>046-055>057-062-260400
...CENTRAL NEW YORK...

CITY           SKY/WX    TMP DP  RH WIND       PRES   REMARKS
BINGHAMTON     MOCLDY    71  55  56 S10       30.12S
CORTLAND       FAIR      73  57  56 SW10G20   30.09S
DANSVILLE      MOCLDY    70  62  76 CALM      30.04R
ELMIRA         CLOUDY    77  59  53 W8        30.07S
ITHACA         CLOUDY    74  58  57 S12       30.09S
MONTICELLO     PTCLDY    70  57  64 S8        30.20S
NORWICH        CLEAR     72  54  53 S7        30.10S
ONEONTA        CLEAR     72  52  49 SW10G20   30.13F
PENN YAN       CLOUDY    75  57  53 S6        30.04S
ROME           LGT RAIN  75  59  57 N3        30.04R
SIDNEY         CLEAR     75  57  53 SW7       30.11S
SYRACUSE       CLOUDY    80  57  45 S9        30.00F
$$

!PAZ038>040-043-044-047-048-072-260400
...NORTHEAST PENNSYLVANIA...

CITY           SKY/WX    TMP DP  RH WIND       PRES   REMARKS
HAZLETON       MOCLDY    70  59  68 S8        30.24S
SCRANTON       CLEAR     74  58  57 SW10      30.16R
$$
&&
KEY
WCI = WIND CHILL INDEX
VSB = VISIBILITY
HX  = HEAT INDEX
$$



USA.gov is the U.S. government's official web portal to all federal, state and local government web resources and services.